DECAYED

STARLINK-2069, 47359 (Decayed)

Orbit data source: Space-Track

STARLINK-2069, 47359 was a payload satellite owned by SpaceX/Seattle (US) in LEO that was launched on Wed, 20 Jan 2021 UTC via an FALCON 9 launch vehicle from the Air Force Eastern Test Range (AFETR). Payload-class satellites include a variety of spacecraft equipped with specific instruments for various scientific and technological missions. These include communications satellites like Starlink; space stations such as the ISS; scientific satellites like the Hubble; Earth observation satellites from companies like Planet Labs, Umbra, and HawkEye 360; GPS; miniature CubeSats for education and research; and military/defense satellites.

Not visible in the next 10 days
Identifier
47359, 2021-005L
Orbit
Decayed
Country
Flag of USUS
Related business
Manufacturer
SpaceX/Seattle
Mission
Decayed Commercial Communications
Bus & Motor
STARLINK, Unknown motor
Mass
260 kg wet, ~248 kg dry
Launch date (UTC)
2021-01-20 (5 years ago)
Launch vehicle
FALCON 9
Launch site
Air Force Eastern Test Range (AFETR)
Object type
Payload
Rocket body
Debris
Shape & HBR
Box + 1 Pan, 10.1 m
Radar Cross Section
13.562 m², Large (>1 m²)

Expand to show TLE details & history
Last TLE update: 6 months ago

TLE from 6 months ago
0 STARLINK-2069
1 47359U 21005L   25360.17357024  .06540628  11758-4  33367-2 0  9992
2 47359  52.9955 272.3572 0006475 184.7420 175.3557 16.19776909273629
Epoch: 2025-12-26T04:09Z
TLE epoch observation values (Epoch: 2025-12-26T04:09:56.468Z)
Latitude
-0.00003°
Longitude
114.95384°
Altitude
225.332 km
Speed
7.77 km/s
True Right ascension
18h 09m 25s
True Declination
0° 00' 00"
Sunlit
Object was in daylight at epoch
Visualization orbit readout
Latitude
Unknown
Longitude
Unknown
Altitude
Unknown
Speed
Unknown
Apparent Right ascension
Unknown
Apparent Declination
Unknown
Sunlit
N/A
Visualization observer readout
Local Sidereal Time
23:07:46
Azimuth
Unknown
Elevation
Unknown
Doppler factor
Unknown
Orbital elements
Apogee altitude
224.724 km
Perigee altitude
216.179 km
Semi-major axis
6,598.588 km
Eccentricity
0.00065
Inclination
52.9955°
RAAN
272.3572°
Arg. of periapsis
184.742°
True anomaly
175.3617°
Mean anomaly
175.3557°
Eccentric anomaly
175.3587°
Mean motion
4.04918 °/min
Orbital period
88.91 mins
BSTAR
0.0033367
Loading maneuver chart data...
Computing Atmospheric mass density...

Documentation

Showing up to 5 results
|